#timestamp,LO_Frequency,Hit,StdDev 
1607799615.0,286047000.7,N
1607799615.9,286047000.7,N
1607799635.8,286047000.8,N
1607799655.6,286047001.1,N
1607799675.5,286047002.4,N
1607799695.3,286047002.0,N
1607799715.1,286047001.8,N
1607799735.9,286047001.9,N
1607799755.7,286047002.5,N
1607799775.5,286047002.8,N
1607799795.4,286047001.2,N
1607799815.2,286046998.2,N
1607799835.1,286047000.3,N
1607799836.0,286047000.3,N
1607799855.8,286047000.0,N
1607799905.7,286047002.0,E
1607799915.6,286047000.0,N
1607799935.4,286046998.7,P
1607799955.3,286046999.2,N
1607799975.1,286046996.5,Y
1607799995.8,286046997.1,P
1607800015.7,286046998.9,N
1607800035.5,286046996.5,P
1607800055.4,286046998.7,N
1607800075.2,286046999.8,N
1607800095.0,286047000.6,N
1607800095.9,286047000.6,N
1607800115.8,286046999.8,N
1607800135.6,286047002.3,N
1607800155.5,286047002.2,N
1607800175.3,286046999.7,N
1607800195.1,286047000.5,N
1607800215.9,286047000.0,N
1607800235.7,286047000.0,N
1607800255.5,286047000.1,N
1607800275.4,286047001.4,N
1607800295.2,286047001.5,N
1607800315.0,286047001.4,N
1607800316.0,286047001.4,N
1607800335.8,286047004.4,N
1607800355.6,286047004.3,N
1607800375.5,286047004.2,N
1607800395.3,286047004.3,N
1607800415.1,286047004.0,N
1607800435.9,286047003.1,N
1607800455.7,286047004.4,N
1607800475.5,286047001.7,N
1607800495.4,286047001.3,N
1607800515.2,286047004.4,N
1607800535.1,286047001.3,N
1607800536.0,286047001.3,N
1607800555.8,286047002.2,N
1607800575.6,286047001.4,N
1607800595.5,286047001.3,N
1607800615.3,286047003.8,N
1607800635.1,286047004.0,N
1607800655.9,286047001.4,N
1607800675.7,286047002.5,N
1607800695.6,286047001.7,N
1607800715.4,286047004.4,N
1607800735.2,286047003.9,N
1607800755.1,286047003.4,N
1607800756.0,286047003.4,N
1607800775.8,286047005.8,Y
1607800795.6,286047001.7,P
1607800815.5,286047001.8,P
1607800835.3,286047004.4,P
1607800855.2,286047002.0,N
1607800875.9,286047002.3,N
1607800895.7,286047002.4,N
1607800915.6,286047001.8,N
1607800935.4,286047003.8,Y
1607800955.3,286046999.9,P
1607800975.1,286046998.6,N
1607800976.0,286046998.6,N
1607800995.8,286047001.0,N
1607801015.7,286047000.6,N
1607801035.5,286047000.7,N
1607801055.3,286046998.5,N
1607801075.2,286047000.6,N
1607801095.0,286047000.3,N
1607801095.9,286047000.3,N
1607801115.8,286047002.7,N
1607801135.6,286047002.4,N
1607801155.4,286047001.8,N
1607801175.3,286047001.8,N
1607801195.1,286047002.3,N
1607801215.8,286047000.5,N
1607801235.7,286047000.6,N
1607801255.5,286046998.5,N
1607801275.4,286046998.4,N
1607801295.2,286046998.6,N
1607801315.0,286046998.8,N
1607801315.9,286046998.8,N
1607801335.8,286046998.7,N
1607801355.6,286046999.2,N
1607801375.4,286046996.8,N
1607801395.3,286046998.8,N
1607801415.1,286046998.5,N
1607801435.9,286046998.3,N
1607801455.7,286046998.2,N
1607801475.5,286046998.4,N
1607801495.4,286047000.8,N
1607801515.2,286047001.1,N
1607801535.0,286047001.0,N
1607801535.9,286047001.0,N
1607801555.8,286046998.5,N
1607801575.6,286046998.6,N
1607801595.5,286046998.2,N
1607801615.3,286046999.8,N
1607801635.1,286047002.6,N
1607801655.9,286046999.7,N
1607801675.7,286047000.4,N
1607801695.5,286047000.3,N
1607801715.4,286047000.2,N
1607801735.2,286047002.6,N
1607801755.1,286047002.1,N
1607801756.0,286047002.1,N
1607801775.8,286047002.0,N
1607801795.6,286046999.9,N
1607801815.5,286047002.3,N
1607801835.3,286047002.4,N
1607801855.1,286047002.6,N
1607801875.9,286047002.2,N
1607801895.7,286046999.8,N
1607801915.6,286047002.7,N
1607801935.4,286047002.8,N
1607801955.2,286047001.0,N
1607801975.1,286046999.7,N
1607801976.0,286046999.7,N
1607801995.8,286047002.0,N
1607802015.6,286047002.1,N
1607802035.5,286046999.9,N
1607802055.3,286046999.9,N
1607802075.2,286047000.4,N
1607802095.9,286047000.5,N
1607802115.7,286047002.5,N
1607802135.6,286047002.3,N
1607802155.4,286047002.3,N
1607802175.2,286047002.0,N
1607802195.1,286047004.0,Y
1607802196.0,286047004.0,P
1607802215.8,286047001.5,N
1607802235.7,286047002.0,N
1607802255.5,286047001.4,N
1607802275.3,286047004.2,Y
1607802295.2,286047002.8,P
1607802315.0,286047001.5,P
1607802315.9,286047001.5,N
1607802335.8,286047001.5,N
1607802355.6,286047002.0,Y
1607802375.4,286047001.1,P
1607802395.3,286046997.1,P
1607802415.1,286046995.6,N
1607802435.8,286046996.1,N
1607802455.7,286046996.2,N
1607802475.5,286046995.7,N
1607802495.4,286046995.8,N
1607802515.2,286046995.7,N
1607802535.0,286046995.6,N
1607802535.9,286046995.6,N
1607802555.8,286046997.9,N
1607802575.6,286046994.9,N
1607802595.4,286046997.2,N
1607802615.3,286046998.0,N
1607802635.1,286046997.9,N
1607802655.9,286046995.1,N
1607802675.7,286046995.5,N
1607802695.5,286046995.3,N
1607802715.4,286046996.2,N
1607802735.2,286046995.8,N
1607802755.0,286046995.8,N
1607802755.9,286046995.8,N
1607802775.8,286046993.8,Y
1607802795.6,286046997.4,P
1607802815.5,286046999.6,N
1607802835.3,286046997.4,N
1607802855.1,286046997.7,N
1607802875.9,286046995.4,Y
1607802895.7,286046996.9,P
1607802915.5,286046996.7,P
1607802935.4,286046997.3,P
1607802955.2,286046997.1,Y
1607802975.1,286046999.7,P
1607802976.0,286046999.7,N
1607802995.8,286047000.2,N
1607803015.6,286046999.9,N
1607803035.5,286047002.4,N
1607803055.3,286047002.7,N
1607803075.1,286047000.0,N
1607803095.9,286046998.6,N
1607803115.7,286047000.3,N
1607803135.6,286046998.5,N
1607803155.4,286046998.9,N
1607803175.2,286046998.6,N
1607803195.1,286046999.0,N
1607803196.0,286046999.0,N
